Location: Deosh
(23.6667°N, 91.1167°E)
Time: 06:46:23
(UTC+00:00)

Daily predictions for brighter satellites

Satellite Brightness Start Highest point End
(mag) Time Altitude Azimuth Time Altitude Azimuth Time Altitude Azimuth
Cosmos 1455 2.9 12:01:50 10° SSE 12:05:07 29° E 12:08:24 10° NNE
Cosmos 2369 3.8 12:00:35 10° S 12:06:08 54° ESE 12:11:41 10° NNE
Cosmos 1992 Rocket 3.9 12:03:33 10° S 12:08:42 68° ESE 12:13:51 10° NNE
Cosmos 1939 Rocket 2.9 12:06:53 10° SSE 12:10:49 57° ENE 12:14:42 10° N
Delta 142 4.2 12:06:47 10° WNW 12:11:15 52° N 12:15:10 19° ENE
Helios 1A Rocket 3.3 12:13:06 10° SE 12:16:58 40° ENE 12:20:49 10° N
H-2A R/B 3.3 12:16:19 18° E 12:18:02 21° ENE 12:21:58 10° NNE
Okean-O 3.0 12:15:15 10° SE 12:19:21 38° ENE 12:23:27 10° N
NOSS 3-3 (A) 4.4 12:17:18 10° SW 12:22:43 56° WNW 12:28:35 10° NNE
NOSS 3-3 (C) 4.4 12:17:20 10° SW 12:22:50 57° WNW 12:28:44 10° NNE
CZ-2C R/B 4.2 12:24:59 16° ESE 12:24:59 16° ESE 12:26:54 10° SE
Atlas Centaur 2 3.4 12:15:30 10° W 12:23:46 62° N 12:29:46 21° ENE
Meteor 2-1 Rocket 4.1 12:21:58 10° S 12:27:28 74° E 12:32:57 10° N
Cosmos 2227 Rocket 2.9 12:25:29 10° N 12:30:25 31° ENE 12:31:56 27° E
OAO 3 Copernicus 4.2 12:25:33 10° WSW 12:30:35 87° NNW 12:33:11 29° ENE
CZ-4 R/B 1.3 12:30:33 10° SSE 12:34:24 55° ENE 12:38:12 10° N
Cosmos 1697 Rocket 3.1 12:29:25 10° SSW 12:34:57 63° WNW 12:40:30 10° N
Elektron 3 3.6 12:31:28 10° NNW 12:35:03 82° ENE 12:36:01 38° SE
Delta 7925 Rocket 4.5 12:31:48 10° SW 12:37:21 34° SSE 12:39:11 27° ESE
IRS-1C Rocket 4.3 12:32:48 10° S 12:38:02 73° WSW 12:43:18 10° NNW
IRS-P2 Rocket 4.4 12:36:32 10° SSE 12:41:43 78° ENE 12:46:57 10° N
Cosmos 2058 4.0 12:43:48 10° N 12:54:00 - SSE 12:45:56 28° NNE
Cosmos 883 Rocket 4.3 12:44:10 10° S 12:50:19 70° E 12:56:25 10° N
Cosmos 1892 2.8 12:48:52 10° N 12:52:44 77° W 12:56:35 10° S
OAO 3 Rocket 3.7 12:48:14 10° NW 12:52:45 41° NNE 12:52:53 41° NNE
Cosmos 2315 Rocket 3.9 12:47:32 10° S 12:53:37 58° E 12:59:40 10° NNE
S3M 4.5 12:48:40 10° SSW 12:54:39 59° W 13:00:40 10° N
CZ-2D R/B 4.4 12:51:54 10° S 12:55:32 43° W 12:59:11 10° NNW
Cosmos 1980 Rocket 2.2 12:51:50 10° SSW 12:57:29 82° WNW 13:01:42 18° NNE
Hubble Space Telescope 3.0 13:00:25 10° WSW 13:03:18 18° SSW 13:04:43 16° S
CSL-04 Debris 4.0 12:58:00 10° SSE 13:03:20 67° ENE 13:08:44 10° N
SWIFT 4.4 13:06:11 10° WSW 13:09:10 18° SSW 13:09:44 18° S
Cosmos 2297 Rocket 2.1 13:04:41 10° NNW 13:10:21 83° WSW 13:13:52 24° SSE
Cosmos 968 Rocket 3.3 13:06:06 10° NNW 13:10:54 75° NNE 13:10:54 75° NNE
CZ-2C R/B 4.0 13:17:19 10° S 13:22:58 54° W 13:28:36 10° NNW
Milstar 3 2.8 13:17:27 10° WNW 13:24:04 63° N 13:24:45 60° NE
YAOGAN 1 4.0 13:20:58 10° SSW 13:24:56 36° W 13:28:54 10° NNW
SEDSat Delta rocket 4.1 13:22:48 10° SW 13:28:42 62° S 13:28:42 62° S
ASC 2 Rocket 3.9 13:25:24 10° W 13:29:13 57° WSW 13:29:13 57° WSW
H-2A R/B 3.6 13:56:57 33° WSW 13:57:07 33° W 14:01:57 10° NW
Cosmos 2227 Rocket 4.2 14:09:50 10° NW 14:13:55 23° W 14:13:55 23° W
Atlas Centaur 2 3.8 14:06:06 10° WNW 14:12:22 45° NW 14:12:22 45° NW
Cosmos 2082 Rocket 4.3 21:04:07 22° ESE 21:04:12 22° ESE 21:08:21 10° NE
ATLAS 3B R/B 3.4 21:23:36 45° NE 21:23:36 45° NE 21:28:05 10° NNE
ADEOS Rocket 4.4 21:29:46 10° SE 21:34:35 31° ENE 21:39:20 10° NNE
Mugunghwa Rocket 4.3 21:47:02 69° NW 21:47:38 72° N 21:55:04 10° E
CZ-3 R/B 3.8 21:37:02 42° W 21:50:07 81° NNW 21:59:58 10° ENE
Cosmos 292 Rocket 3.7 22:07:29 75° NNE 22:07:49 81° ENE 22:12:39 10° SSE
Cosmos 2142 Rocket 4.4 22:09:47 59° W 22:09:49 59° W 22:16:02 10° S
ATLAS CENTAUR R/B 4.3 22:11:13 10° SSE 22:13:49 16° ESE 22:16:21 10° ENE
ADEOS 3.7 22:09:27 10° NNE 22:14:41 72° ESE 22:19:52 10° S
ERS-2 4.2 22:12:35 10° SE 22:15:40 27° ENE 22:18:46 10° NNE
Palapa 6 Rocket 3.2 22:18:16 52° SSE 22:18:16 52° SSE 22:22:06 10° E
Cosmos 44 Rocket 4.4 22:17:54 13° N 22:22:18 47° ENE 22:27:16 10° SE
EPKM 3.9 22:22:09 42° WNW 22:24:28 78° N 22:50:23 10° E
Cosmos 1833 Rocket 4.3 22:28:30 18° NNW 22:28:30 18° NNW 22:30:17 10° N
Cosmos 2279 Rocket 4.2 22:28:15 24° NW 22:31:33 43° W 22:37:19 10° SSW
H-2A R/B 2.2 22:28:18 10° S 22:32:41 54° W 22:33:43 43° NW
CZ-3A R/B 2.9 22:34:23 21° S 22:34:45 22° SSE 22:37:01 10° E
Delta 128 3.8 22:35:33 43° WSW 22:36:34 54° SSW 22:41:05 10° SE
GOES 2 Rocket 4.0 22:34:46 36° WNW 22:36:54 59° N 22:43:51 10° ENE
CZ-4B R/B 3.7 22:34:19 10° NNE 22:38:22 90° E 22:42:12 10° SSW
ARGOS Delta rocket 4.5 22:33:06 10° NNE 22:38:34 68° E 22:43:58 10° S
Cosmos 1908 3.4 22:39:58 47° W 22:40:00 47° W 22:43:45 10° SSW
CZ-2C R/B 0.9 22:41:03 50° SSW 22:41:03 50° SSW 22:44:11 10° SE
Cosmos 2026 Rocket 4.2 22:36:10 10° S 22:42:28 77° E 22:48:51 10° N
Meteor 1-24 Rocket 3.6 22:37:36 10° SSW 22:43:03 69° W 22:48:43 10° N
ALOS 2.3 22:40:41 10° N 22:45:14 53° WNW 22:49:45 10° SSW
METEOR-M 4.0 22:42:04 10° N 22:47:22 70° WNW 22:52:40 10° SSW
Cosmos 2195 Rocket 4.4 22:41:13 10° S 22:47:27 80° W 22:53:39 10° N
SL-14 R/B 3.7 22:44:05 10° SSW 22:47:44 37° W 22:51:26 10° NNW
Cosmos 2082 Rocket 2.8 22:46:10 26° WSW 22:47:57 32° WNW 22:52:56 10° N
CZ-4B R/B 1.7 22:46:46 10° SSE 22:50:11 69° ENE 22:53:38 10° N
Okean 1-7 Rocket 3.7 22:49:46 10° S 22:54:19 82° E 22:58:51 10° N
Cosmos 2369 4.3 22:48:48 10° N 22:54:21 58° ENE 22:59:52 10° SSE
Cosmos 1300 3.1 22:52:05 10° N 22:55:51 64° E 22:59:37 10° SSE
Cosmos 1656 3.9 22:50:57 10° NNW 22:56:26 50° WSW 23:01:51 10° S
Cosmos 614 Rocket 3.9 22:53:03 10° SSW 22:58:12 71° WNW 23:03:20 10° N
GPS 2-17 Rocket1 4.2 22:57:19 18° WSW 22:59:48 30° SSW 23:03:53 10° SE
Delta 168 4.3 22:59:04 14° SW 23:00:09 16° SSW 23:02:24 10° SSE
deb Chang Zheng 4 4.1 22:57:02 10° N 23:00:55 35° WNW 23:04:48 10° SW
Cosmos 1689 Rocket 4.4 22:59:07 10° SE 23:01:38 26° ENE 23:04:08 10° NNE
Cosmos 2251 Rocket 4.4 22:58:43 10° SW 23:03:14 27° WNW 23:07:46 10° NNW
Cosmos 1892 Rocket 3.7 22:59:52 10° SSW 23:04:00 45° W 23:08:11 10° N
Cosmos 2058 Rocket 4.1 23:02:39 10° N 23:06:58 49° E 23:11:15 10° SSE
SJ-12 4.0 23:05:44 10° N 23:09:44 54° WNW 23:13:42 10° SSW
SL-27 R/B 4.0 23:07:58 10° S 23:11:19 40° E 23:14:42 10° NNE
ATLAS 3B R/B 4.0 23:10:57 14° WNW 23:12:38 15° NW 23:16:23 10° NNW
Cosmos 1484 Rocket 4.2 23:14:18 10° NNW 23:16:42 16° WNW 23:19:04 10° WSW
Cosmos 1023 Rocket 4.4 23:13:31 10° SSW 23:18:37 89° WNW 23:23:42 10° NNE
SKYMED 2 3.9 23:15:04 10° SSE 23:19:22 70° ENE 23:23:41 10° N
ADEOS Rocket 3.9 23:15:59 10° SW 23:20:02 21° W 23:24:03 10° NW
H-2A R/B 3.4 23:16:36 10° NNE 23:20:24 61° E 23:24:13 10° S
Cosmos 1697 Rocket 2.7 23:16:19 10° NNW 23:21:52 60° WSW 23:27:25 10° S
ASTRO F (AKARI) 4.5 23:19:34 10° N 23:22:48 49° WNW 23:25:56 10° SSW
Cosmos 1190 Rocket 4.0 23:18:42 10° SSW 23:23:58 83° WNW 23:29:12 10° NNE
PSLV R/B 4.4 23:20:26 10° SSE 23:24:33 67° ENE 23:28:44 10° N
DELTA 2 R/B (1) 3.7 23:22:25 10° NW 23:28:03 84° NE 23:33:40 10° ESE
Cosmos 1626 Rocket 3.6 23:23:45 10° S 23:28:11 87° W 23:32:39 10° N
Meteor PRIRODA 4.1 23:25:03 10° N 23:28:28 38° WNW 23:31:53 10° SW
Meteor 1-21 Rocket 4.4 23:24:23 10° S 23:30:06 83° E 23:35:57 10° N
Cosmos 1602 Rocket 3.9 23:26:46 10° S 23:31:08 71° E 23:35:32 10° N
Cosmos 2098 Rocket 4.0 23:27:05 10° S 23:33:57 83° W 23:39:36 10° N
Meteor 2-19 Rocket 4.4 23:28:15 10° SSW 23:34:19 71° W 23:40:23 10° N
Spot 2 4.3 23:31:25 10° N 23:36:08 74° WNW 23:41:06 10° SSW
ATLAS CENTAUR Rocket 3.4 23:33:10 10° W 23:36:19 21° SSW 23:39:37 10° SSE
GPS 2-18 Rocket1 4.2 23:34:04 10° WSW 23:37:30 37° S 23:40:55 10° E
Geosat 4.4 23:34:41 10° S 23:39:27 45° WSW 23:44:15 10° NW
Cosmos 1703 3.8 23:36:41 10° S 23:40:30 64° E 23:44:20 10° NNE
Mugunghwa Rocket 4.4 23:36:15 10° WNW 23:44:02 81° N 23:50:57 10° E
